�������l�o���
Date,Time,MP-1(��Sv/h),MP-2(��Sv/h),MP-3(��Sv/h),MP-4(��Sv/h),MP-5(��Sv/h),MP-6(��Sv/h),MP-7(��Sv/h),MP-8(��Sv/h),����,����(m/s),���J
2020/07/02,00:00,0.667,0.944,0.619,1.147,0.826,0.396,0.673,0.633,�쐼,2.6,�L
2020/07/02,00:10,0.666,0.944,0.618,1.147,0.826,0.397,0.672,0.633,��쐼,2.3,�L
2020/07/02,00:20,0.668,0.944,0.617,1.149,0.827,0.396,0.671,0.631,��,4.0,�L
2020/07/02,00:30,0.667,0.945,0.618,1.149,0.824,0.397,0.671,0.631,��,8.2,�L
2020/07/02,00:40,0.668,0.941,0.618,1.147,0.824,0.398,0.670,0.629,��,7.5,�L
2020/07/02,00:50,0.665,0.940,0.615,1.145,0.823,0.396,0.670,0.631,��,6.0,�L
2020/07/02,01:00,0.665,0.938,0.613,1.143,0.822,0.396,0.670,0.629,��,7.0,�L
2020/07/02,01:10,0.664,0.936,0.612,1.143,0.818,0.396,0.667,0.626,�쐼,4.8,�L
2020/07/02,01:20,0.664,0.936,0.612,1.143,0.819,0.396,0.667,0.628,��쐼,4.3,�L
2020/07/02,01:30,0.662,0.935,0.611,1.142,0.817,0.395,0.669,0.630,��쓌,8.0,�L
2020/07/02,01:40,0.662,0.932,0.612,1.139,0.815,0.393,0.667,0.627,��쓌,7.6,�L
2020/07/02,01:50,0.662,0.929,0.608,1.138,0.811,0.393,0.667,0.626,��쓌,6.0,�L
2020/07/02,02:00,0.658,0.926,0.608,1.136,0.810,0.393,0.667,0.625,��쓌,4.2,�L
2020/07/02,02:10,0.659,0.927,0.608,1.134,0.810,0.393,0.665,0.625,��,4.2,�L
2020/07/02,02:20,0.659,0.926,0.607,1.134,0.810,0.394,0.665,0.625,��쐼,5.2,�L
2020/07/02,02:30,0.659,0.929,0.608,1.131,0.809,0.391,0.666,0.627,�쐼,3.3,�L
2020/07/02,02:40,0.658,0.927,0.608,1.134,0.812,0.393,0.665,0.625,��쐼,3.0,��
2020/07/02,02:50,0.660,0.930,0.608,1.131,0.811,0.393,0.666,0.625,��쐼,3.2,��
2020/07/02,03:00,0.658,0.928,0.610,1.131,0.813,0.392,0.667,0.627,��,4.0,�L
2020/07/02,03:10,0.659,0.928,0.610,1.132,0.811,0.394,0.667,0.625,��쐼,3.4,��
2020/07/02,03:20,0.658,0.927,0.609,1.130,0.811,0.392,0.667,0.627,��,6.1,��
2020/07/02,03:30,0.657,0.929,0.609,1.133,0.809,0.392,0.667,0.625,��,7.1,��
2020/07/02,03:40,0.659,0.927,0.610,1.132,0.811,0.392,0.667,0.627,��,7.3,��
2020/07/02,03:50,0.658,0.926,0.609,1.135,0.810,0.391,0.667,0.628,��,7.1,��
2020/07/02,04:00,0.659,0.928,0.608,1.133,0.811,0.392,0.666,0.626,��,5.4,��
2020/07/02,04:10,0.658,0.926,0.608,1.134,0.812,0.392,0.666,0.626,��,6.3,��
2020/07/02,04:20,0.659,0.926,0.610,1.132,0.811,0.391,0.668,0.627,��,5.5,��
2020/07/02,04:30,0.656,0.926,0.608,1.133,0.813,0.391,0.667,0.629,��쐼,2.9,��
2020/07/02,04:40,0.659,0.929,0.608,1.132,0.813,0.393,0.667,0.628,��쐼,2.3,��
2020/07/02,04:50,0.657,0.930,0.609,1.133,0.812,0.393,0.668,0.627,��쐼,2.0,��
2020/07/02,05:00,0.656,0.930,0.609,1.133,0.814,0.392,0.667,0.628,��,2.6,��
2020/07/02,05:10,0.659,0.931,0.608,1.132,0.813,0.393,0.668,0.629,��,2.6,��
2020/07/02,05:20,0.657,0.931,0.609,1.133,0.814,0.392,0.668,0.627,��,3.9,��
2020/07/02,05:30,0.657,0.933,0.611,1.135,0.815,0.391,0.670,0.627,��쐼,3.2,��
2020/07/02,05:40,0.658,0.932,0.610,1.134,0.814,0.392,0.669,0.628,���쐼,2.0,��
2020/07/02,05:50,0.661,0.930,0.610,1.134,0.815,0.391,0.669,0.630,��,1.7,��
2020/07/02,06:00,0.661,0.932,0.609,1.133,0.815,0.393,0.669,0.629,��,1.1,��
2020/07/02,06:10,0.662,0.932,0.610,1.135,0.815,0.392,0.669,0.628,���쐼,1.7,��
2020/07/02,06:20,0.663,0.934,0.610,1.135,0.813,0.394,0.671,0.630,���k��,2.6,��
2020/07/02,06:30,0.662,0.933,0.609,1.134,0.814,0.394,0.668,0.630,�k�k��,2.3,��
2020/07/02,06:40,0.663,0.931,0.606,1.134,0.816,0.392,0.669,0.630,�k��,2.0,��
2020/07/02,06:50,0.662,0.932,0.605,1.137,0.816,0.393,0.672,0.628,-,CALM,��
2020/07/02,07:00,0.659,0.931,0.602,1.136,0.817,0.392,0.670,0.630,�k�k��,3.5,��
2020/07/02,07:10,0.661,0.931,0.604,1.134,0.816,0.392,0.668,0.629,�k,5.1,��
2020/07/02,07:20,0.661,0.931,0.602,1.134,0.813,0.393,0.667,0.629,�k�k��,4.0,��
2020/07/02,07:30,0.661,0.931,0.600,1.136,0.815,0.393,0.668,0.629,�k,4.3,��
2020/07/02,07:40,0.660,0.932,0.602,1.136,0.817,0.392,0.669,0.628,�k�k��,3.7,��
2020/07/02,07:50,0.661,0.932,0.601,1.138,0.815,0.393,0.669,0.626,�k,5.0,��
2020/07/02,08:00,0.660,0.933,0.605,1.139,0.819,0.391,0.668,0.626,�k�k��,5.2,��
2020/07/02,08:10,0.662,0.932,0.607,1.137,0.817,0.392,0.667,0.626,�k�k��,4.4,��
2020/07/02,08:20,0.661,0.934,0.604,1.139,0.818,0.391,0.669,0.627,���k��,4.1,��
2020/07/02,08:30,0.661,0.929,0.608,1.136,0.817,0.391,0.669,0.628,�k��,3.4,��
2020/07/02,08:40,0.661,0.929,0.603,1.135,0.817,0.391,0.669,0.627,�k��,3.6,��
2020/07/02,08:50,0.661,0.933,0.604,1.136,0.819,0.391,0.668,0.628,�k��,3.4,��
2020/07/02,09:00,0.661,0.929,0.604,1.138,0.817,0.391,0.670,0.629,�k��,3.6,��
2020/07/02,09:10,0.661,0.927,0.605,1.137,0.818,0.390,0.668,0.627,���k��,3.0,��
2020/07/02,09:20,0.662,0.929,0.603,1.137,0.816,0.390,0.669,0.626,�k��,3.0,��
2020/07/02,09:30,0.662,0.929,0.603,1.137,0.818,0.392,0.670,0.628,�k��,2.0,��
2020/07/02,09:40,0.663,0.930,0.603,1.139,0.817,0.390,0.670,0.628,�k��,2.6,��
2020/07/02,09:50,0.665,0.932,0.606,1.137,0.820,0.391,0.670,0.628,�k��,2.9,��
2020/07/02,10:00,0.665,0.932,0.606,1.137,0.819,0.390,0.669,0.628,�k��,2.6,��
2020/07/02,10:10,0.664,0.932,0.607,1.137,0.819,0.392,0.672,0.630,�k��,2.3,��
2020/07/02,10:20,0.663,0.930,0.609,1.136,0.821,0.393,0.671,0.629,�k��,3.9,��
2020/07/02,10:30,0.664,0.932,0.608,1.137,0.821,0.393,0.671,0.630,�k��,3.0,��
2020/07/02,10:40,0.665,0.935,0.610,1.137,0.821,0.391,0.670,0.630,�k��,2.3,��
2020/07/02,10:50,0.665,0.934,0.609,1.136,0.822,0.394,0.672,0.629,��,2.5,��
2020/07/02,11:00,0.665,0.935,0.607,1.139,0.823,0.391,0.672,0.631,��,3.2,��
2020/07/02,11:10,0.665,0.937,0.610,1.140,0.823,0.391,0.673,0.629,��,2.6,��
2020/07/02,11:20,0.664,0.937,0.609,1.140,0.825,0.392,0.671,0.630,��,1.9,��
2020/07/02,11:30,0.665,0.938,0.609,1.140,0.823,0.390,0.672,0.630,���쓌,2.6,��
2020/07/02,11:40,0.665,0.939,0.609,1.140,0.824,0.392,0.673,0.630,��,2.9,��
2020/07/02,11:50,0.667,0.941,0.612,1.140,0.825,0.391,0.673,0.630,��,1.7,��
2020/07/02,12:00,0.667,0.940,0.612,1.139,0.825,0.393,0.672,0.632,���쓌,1.9,��
2020/07/02,12:10,0.668,0.942,0.609,1.142,0.827,0.393,0.674,0.630,��,3.1,��
2020/07/02,12:20,0.669,0.944,0.611,1.143,0.825,0.392,0.673,0.629,��,3.6,��
2020/07/02,12:30,0.668,0.947,0.613,1.142,0.826,0.394,0.673,0.631,���k��,3.0,��
2020/07/02,12:40,0.669,0.947,0.611,1.144,0.826,0.392,0.674,0.632,��,1.5,��
2020/07/02,12:50,0.669,0.944,0.614,1.141,0.826,0.392,0.675,0.630,���k��,2.5,��
2020/07/02,13:00,0.667,0.941,0.612,1.144,0.826,0.392,0.674,0.631,���k��,2.3,��
2020/07/02,13:10,0.670,0.946,0.613,1.145,0.829,0.393,0.676,0.631,�k��,2.3,��
2020/07/02,13:20,0.670,0.944,0.614,1.144,0.828,0.393,0.676,0.632,���k��,2.3,��
2020/07/02,13:30,0.669,0.947,0.613,1.144,0.826,0.394,0.675,0.631,���k��,3.4,��
2020/07/02,13:40,0.668,0.944,0.613,1.146,0.827,0.393,0.674,0.632,�k��,2.6,��
2020/07/02,13:50,0.671,0.946,0.610,1.145,0.828,0.392,0.675,0.632,�k��,3.0,��
2020/07/02,14:00,0.669,0.946,0.613,1.146,0.830,0.393,0.676,0.633,�k�k��,3.1,��
2020/07/02,14:10,0.669,0.945,0.610,1.147,0.831,0.392,0.675,0.632,�k�k��,2.8,��
2020/07/02,14:20,0.669,0.945,0.611,1.148,0.831,0.391,0.673,0.632,�k��,3.2,��
2020/07/02,14:30,0.668,0.946,0.613,1.147,0.829,0.392,0.676,0.634,�k��,2.0,��
2020/07/02,14:40,0.669,0.947,0.614,1.148,0.829,0.393,0.677,0.631,�k,2.2,��
2020/07/02,14:50,0.671,0.945,0.615,1.149,0.829,0.392,0.678,0.634,�k,2.0,��
2020/07/02,15:00,0.668,0.947,0.613,1.149,0.831,0.393,0.676,0.631,�k�k��,1.7,��
2020/07/02,15:10,0.669,0.948,0.614,1.148,0.828,0.393,0.677,0.632,�k,2.2,��
2020/07/02,15:20,0.669,0.948,0.615,1.149,0.830,0.393,0.677,0.631,�k�k��,2.6,��
2020/07/02,15:30,0.670,0.950,0.612,1.150,0.831,0.394,0.677,0.631,�k�k��,1.5,��
2020/07/02,15:40,0.669,0.947,0.615,1.147,0.831,0.393,0.676,0.633,�k,1.2,��
2020/07/02,15:50,0.671,0.949,0.615,1.149,0.832,0.393,0.676,0.631,�k�k��,1.7,��
2020/07/02,16:00,0.671,0.949,0.615,1.149,0.832,0.392,0.677,0.632,�k,1.7,��
2020/07/02,16:10,0.668,0.948,0.615,1.149,0.831,0.392,0.676,0.632,�k�k��,2.0,��
2020/07/02,16:20,0.670,0.949,0.615,1.151,0.832,0.392,0.677,0.630,�k��,1.7,��
2020/07/02,16:30,0.670,0.949,0.613,1.150,0.832,0.394,0.677,0.632,�k�k��,1.4,��
2020/07/02,16:40,0.671,0.950,0.615,1.151,0.831,0.393,0.678,0.633,�k��,0.6,��
2020/07/02,16:50,0.671,0.948,0.614,1.150,0.831,0.392,0.676,0.633,�쐼,1.2,��
2020/07/02,17:00,0.672,0.949,0.612,1.152,0.833,0.391,0.679,0.634,��,2.3,��
2020/07/02,17:10,0.670,0.950,0.615,1.153,0.832,0.395,0.676,0.632,�쐼,2.3,��
2020/07/02,17:20,0.673,0.950,0.614,1.151,0.832,0.394,0.678,0.632,�쐼,3.0,��
2020/07/02,17:30,0.671,0.948,0.614,1.151,0.832,0.394,0.676,0.632,���쐼,2.5,��
2020/07/02,17:40,0.674,0.947,0.614,1.153,0.832,0.395,0.675,0.634,��,4.2,��
2020/07/02,17:50,0.671,0.950,0.614,1.151,0.834,0.394,0.677,0.634,��,4.1,��
2020/07/02,18:00,0.670,0.951,0.614,1.153,0.833,0.395,0.677,0.634,��,4.0,��
2020/07/02,18:10,0.671,0.950,0.614,1.154,0.834,0.394,0.677,0.634,��,3.4,��
2020/07/02,18:20,0.670,0.951,0.615,1.153,0.835,0.395,0.675,0.632,���쐼,3.5,��
2020/07/02,18:30,0.672,0.951,0.615,1.153,0.835,0.395,0.676,0.634,��,3.5,��
2020/07/02,18:40,0.671,0.949,0.615,1.152,0.836,0.395,0.677,0.634,���k��,1.4,��
2020/07/02,18:50,0.671,0.952,0.615,1.152,0.836,0.396,0.675,0.634,���쐼,0.6,��
2020/07/02,19:00,0.672,0.953,0.616,1.151,0.834,0.394,0.675,0.634,���k��,2.6,��
2020/07/02,19:10,0.672,0.950,0.615,1.152,0.835,0.394,0.678,0.633,��,3.3,��
2020/07/02,19:20,0.671,0.954,0.616,1.155,0.835,0.395,0.675,0.635,���k��,6.8,��
2020/07/02,19:30,0.672,0.954,0.617,1.152,0.835,0.396,0.677,0.636,���k��,7.0,��
2020/07/02,19:40,0.673,0.952,0.616,1.152,0.835,0.395,0.675,0.633,��,5.3,��
2020/07/02,19:50,0.672,0.951,0.617,1.153,0.833,0.396,0.677,0.633,���k��,4.2,��
2020/07/02,20:00,0.672,0.954,0.617,1.156,0.835,0.396,0.676,0.635,��,1.2,��
2020/07/02,20:10,0.672,0.954,0.617,1.153,0.834,0.395,0.676,0.634,���k��,2.9,��
2020/07/02,20:20,0.672,0.954,0.617,1.156,0.834,0.395,0.676,0.634,���k��,3.7,��
2020/07/02,20:30,0.674,0.954,0.616,1.153,0.834,0.395,0.677,0.635,���k��,5.9,��
2020/07/02,20:40,0.671,0.955,0.616,1.157,0.835,0.394,0.678,0.636,���k��,5.9,��
2020/07/02,20:50,0.673,0.953,0.616,1.156,0.836,0.395,0.677,0.634,��,4.0,��
2020/07/02,21:00,0.672,0.953,0.617,1.154,0.837,0.396,0.678,0.637,���쐼,3.7,��
2020/07/02,21:10,0.672,0.955,0.617,1.154,0.833,0.396,0.675,0.635,��,4.9,��
2020/07/02,21:20,0.674,0.955,0.617,1.159,0.834,0.396,0.676,0.636,��,3.5,��
2020/07/02,21:30,0.672,0.954,0.617,1.157,0.837,0.396,0.678,0.634,���k��,4.5,��
2020/07/02,21:40,0.672,0.954,0.618,1.157,0.833,0.395,0.678,0.635,���k��,4.1,�L
2020/07/02,21:50,0.671,0.953,0.618,1.157,0.836,0.395,0.678,0.635,���k��,3.5,��
2020/07/02,22:00,0.671,0.954,0.617,1.157,0.836,0.397,0.676,0.635,�k��,4.0,��
2020/07/02,22:10,0.671,0.954,0.615,1.159,0.836,0.395,0.677,0.634,���k��,4.6,��
2020/07/02,22:20,0.671,0.954,0.617,1.157,0.836,0.398,0.677,0.636,���k��,4.9,��
2020/07/02,22:30,0.671,0.955,0.617,1.159,0.836,0.397,0.676,0.636,���k��,4.7,��
2020/07/02,22:40,0.671,0.954,0.616,1.157,0.833,0.397,0.677,0.635,���k��,4.4,��
2020/07/02,22:50,0.672,0.955,0.617,1.158,0.837,0.395,0.676,0.635,�k��,3.1,��
2020/07/02,23:00,0.671,0.955,0.616,1.156,0.835,0.395,0.678,0.636,�k�k��,1.1,��
2020/07/02,23:10,0.672,0.955,0.616,1.159,0.836,0.394,0.678,0.636,�k,0.9,��
2020/07/02,23:20,0.673,0.955,0.617,1.158,0.836,0.393,0.677,0.637,�k�k��,2.0,��
2020/07/02,23:30,0.673,0.954,0.616,1.158,0.836,0.396,0.678,0.636,�k�k��,2.6,��
2020/07/02,23:40,0.672,0.955,0.619,1.159,0.834,0.396,0.678,0.635,�k�k��,3.2,��
2020/07/02,23:50,0.672,0.957,0.617,1.159,0.838,0.393,0.678,0.636,�k��,2.6,��
